Regional Weather Roundup
Issued by NWS

Home | Current Version | Previous Version | Text Only | Print | Product List | Glossary On
Versions: 1 2 3 4 5 6 7 8 9 10 11 12 13 14 15 16 17 18 19 20 21 22 23 24 25 26 27 28 29 30 31 32 33 34 35 36 37 38 39 40 41 42 43 44 45 46 47 48 49 50
000
ASUS43 KMPX 231310
RWRMN
WEATHER ROUNDUP FOR MINNESOTA
NATIONAL WEATHER SERVICE TWIN CITIES/CHANHASSEN MN
800 AM CDT MON OCT 23 2017


NOTE: "FAIR" INDICATES FEW OR NO CLOUDS BELOW 12,000 FEET WITH NO
SIGNIFICANT WEATHER AND/OR OBSTRUCTIONS TO VISIBILITY. N/A MEANS
CURRENT SKY AND/OR WEATHER CONDITIONS ARE NOT AVAILABLE.

MNZ060>063-068>070-231400-
   Twin Cities Metro

CITY           SKY/WX    TMP DP  RH WIND       PRES   REMARKS
TWIN CITIES    CLOUDY    51  37  58 SW9       29.77F
ST PAUL        CLOUDY    47  39  74 SE3       29.78F
CRYSTAL        CLOUDY    50  34  54 SW9       29.75F
BLAINE         MOCLDY    52  36  54 SW9       29.76S
LAKEVILLE        N/A     46  37  71 W3        29.77S
EDEN PRAIRIE   MOCLDY    48  37  65 SW7       29.76F
SOUTH ST PAUL  PTCLDY    46  38  71 CALM      29.77F
LAKE ELMO      FAIR      45  37  76 SW5       29.78S
$$
MNZ001>005-007-008-013>017-022>024-027-028-231400-
   Northwest Minnesota

CITY           SKY/WX    TMP DP  RH WIND       PRES   REMARKS
BEMIDJI        CLOUDY    46  40  79 W16G23    29.66R
HALLOCK        LGT RAIN  45  41  87 NW21G26   29.74R
ROSEAU         PTCLDY    45  39  81 NW9       29.64R
WARROAD        CLOUDY    45  41  87 W8        29.63R
THIEF RVR FALL CLOUDY    45  40  82 NW16      29.70R
CROOKSTON      CLOUDY    46  41  81 NW21      29.73R
FOSSTON        MOCLDY    43  37  81 W13       29.71R
DETROIT LAKES  CLEAR     46  37  71 W17G28    29.76R
MOORHEAD       PTCLDY    46  36  66 W24G33    29.78R
PARK RAPIDS    MOCLDY    47  41  80 W17       29.71R
MAHNOMEN       PTSUNNY   44  38  79 W18       29.73R
$$
MNZ006-009>011-018-025>026-231400-
   North Central Minnesota

CITY           SKY/WX    TMP DP  RH WIND       PRES   REMARKS
BAUDETTE       CLOUDY    49  47  93 SW7       29.61R
FLAG ISLAND    LGT RAIN  48  41  76 NW10      29.59R
INTL FALLS     CLOUDY    47  44  90 S5        29.60S
WASKISH        PTCLDY    48  45  87 W14G22    29.63R
BIG FORK       PTCLDY    45  43  93 CALM      29.63S
LONGVILLE      CLOUDY    48  41  76 W6        29.67S
GRAND RAPIDS   PTCLDY    50  38  63 SW5       29.68R
CRANE LAKE     LGT RAIN  45  43  93 CALM      29.66S
ORR            CLOUDY    45  39  81 S5        29.62S
COOK           LGT RAIN  46  41  81 CALM      29.65S
WALKER         FAIR      48  41  77 W13       29.67R
$$
MNZ012-019>021-037-231400-
   Northeast Minnesota

CITY           SKY/WX    TMP DP  RH WIND       PRES   REMARKS
DULUTH         LGT RAIN  50  37  61 SW9G20    29.68S
ELY            LGT RAIN  46  37  71 SW3       29.66R
HIBBING        CLOUDY    47  36  65 CALM      29.66R
EVELETH        LGT RAIN  47  37  69 S6        29.68R
DULUTH HARBOR  CLOUDY    55  39  54 SW9       29.70R
TWO HARBORS    CLOUDY    52  43  71 SW5       29.68R
SILVER BAY     CLOUDY    50  41  71 S3        29.67S
G MARAIS ARPRT MOCLDY    45  39  81 E5        29.71F
$$
MNZ029>031-032-039>041-046>048-054>057-064-231400-
   West Central Minnesota

CITY           SKY/WX    TMP DP  RH WIND       PRES   REMARKS
FERGUS FALLS   CLOUDY    48  37  66 MISG      29.80R
WHEATON        CLOUDY    52  36  54 W21G31    29.84R
MORRIS         CLOUDY    52  39  62 W15       29.81R
ALEXANDRIA     PTCLDY    50  40  68 NW14      29.79R
ELBOW LAKE     CLOUDY    49  39  67 NW17G24   29.81R
WADENA         PTCLDY    48  39  71 W7G20     29.74R
GLENWOOD       CLEAR     48  41  76 W9        29.80R
APPLETON       PTCLDY    52  39  62 W17G23    29.83R
BENSON         MOCLDY    50  39  66 NW15      29.83R
ORTONVILLE     CLEAR     50  37  62 NW16G25   29.84R
MADISON        PTCLDY    54  39  58 NW16G23   29.85R
WILLMAR        FAIR      52  43  71 W13       29.82R
$$
MNZ033>034-036-042>043-049>051-058-059-231400-
   Central Minnesota

CITY           SKY/WX    TMP DP  RH WIND       PRES   REMARKS
ST CLOUD       MOCLDY    46  39  76 SW6       29.74S
SAUK CENTRE    FAIR      50  41  71 W15       29.77R
PAYNESVILLE    CLOUDY    51  42  72 W14G23    29.78R
AITKIN         CLEAR     48  37  66 SW5       29.68R
PINE RIVER     CLEAR     48  39  71 W6        29.73R
BRAINERD       CLEAR     51  41  68 W10       29.71R
STAPLES        PTCLDY    48  39  71 W13       29.73R
LONG PRAIRIE   FAIR      50  41  71 SW14      29.77R
LITTLE FALLS   MOCLDY    52  36  54 W9        29.74R
LITCHFIELD     CLOUDY    54  45  71 W13G22    29.78R
BUFFALO        CLOUDY    48  37  67 SW5       29.77F
MAPLE LAKE     PTCLDY    49  40  73 SW5       29.77S
HUTCHINSON     CLOUDY    51  44  75 W12G18    29.79S
$$
MNZ037-044-045-052-053-231400-
   East Central Minnesota

CITY           SKY/WX    TMP DP  RH WIND       PRES   REMARKS
PRINCETON      CLEAR     48  37  66 S5        29.74S
MORA           CLOUDY    48  36  61 SW7       29.75R
CAMBRIDGE      CLEAR     52  37  58 S6        29.74F
RUSH CITY      CLOUDY    49  36  61 S6        29.74S
MOOSE LAKE     CLOUDY    50  36  57 SW6       29.69S
HINCKLEY       CLOUDY    50  37  62 S6        29.72F
CLOQUET          N/A     48  36  61 SW6       29.68F
MCGREGOR       CLOUDY    48  41  76 S5        29.70R
$$
MNZ071>073-080-081-089-090-097-098-231400-
   Southwest Minnesota

CITY           SKY/WX    TMP DP  RH WIND       PRES   REMARKS
MONTEVIDEO     CLOUDY    52  39  62 NW13G20   29.83R
GRANITE FALLS  MOCLDY    53  42  66 W13       29.85S
CANBY          MOCLDY    51  39  63 NW17G25   29.87S
MARSHALL       CLOUDY    52  40  63 W17G23    29.86R
REDWOOD FALLS  CLOUDY    54  40  59 W18       29.82R
OLIVIA         CLOUDY    54  43  66 W14G22    29.81R
PIPESTONE      MOCLDY    50  37  62 NW13      29.89S
WORTHINGTON    CLOUDY    53  40  61 W17       29.89R
JACKSON        MOCLDY    52  37  58 NW17G23   29.86R
TRACY          CLOUDY    54  42  64 NW12G17   29.86S
SLAYTON        CLOUDY    51  40  64 W13G21    29.89R
$$
MNZ065>067-074>077-082>085-091>093-231400-
   South Central Minnesota

CITY           SKY/WX    TMP DP  RH WIND       PRES   REMARKS
MANKATO        PTCLDY    49  37  63 W12       29.80F
NEW ULM        CLOUDY    50  39  66 W15       29.81R
ST JAMES       MOCLDY    54  39  58 W17G24    29.83R
FAIRMONT       CLOUDY    53  39  59 NW12      29.85R
GLENCOE        CLOUDY    48  39  72 SW5       29.78S
FARIBAULT      PTCLDY    46  36  66 S6        29.80S
OWATONNA       CLEAR     45  37  76 SW8       29.80S
WASECA         CLOUDY    43  36  75 SW7       29.81S
$$
MNZ078>079-086>088-094>096-231400-
   Southeast Minnesota

CITY           SKY/WX    TMP DP  RH WIND       PRES   REMARKS
ROCHESTER      CLEAR     45  38  76 S12       29.81R
RED WING       CLEAR     48  36  61 S3        29.78S
STANTON        PTCLDY    46  37  71 SW6       29.78R
DODGE CENTER   CLEAR     45  37  76 SW10      29.79S
WINONA         CLEAR     48  41  76 SE3       29.80F
AUSTIN         CLEAR     41  37  87 S7        29.81R
PRESTON        CLEAR     46  36  67 SW14      29.82S
$$
ABBREVIATIONS USED IN REMARKS
   TC - TEMPERATURES IN CELSIUS
  WCI - WIND CHILL INDEX
   HX - HEAT INDEX
  VSB - VISIBILITY
$$




USA.gov is the U.S. government's official web portal to all federal, state and local government web resources and services.